N12973 KORD-

Flight info

Callsign N12973
Flight time N/A
Altitude
Route VFR EAST
Aircraft C172/L-VGD/C

Departure

Time 2026-05-05 21:18
Airport Chicago O'Hare International Airport (KORD)

Arrival

Time N/A
Airport -
Time Latitude Longitude Altitude Speed Heading
2026-05-05 21:06 41.99152 -87.89218 647 ft 0 kts 12°
2026-05-05 21:08 41.99171 -87.89216 647 ft 5 kts 347°
2026-05-05 21:08 41.99180 -87.89221 647 ft 0 kts 332°
2026-05-05 21:08 41.99187 -87.89230 647 ft 0 kts 303°
2026-05-05 21:09 41.99187 -87.89231 647 ft 2 kts 301°
2026-05-05 21:09 41.99194 -87.89296 647 ft 5 kts 271°
2026-05-05 21:09 41.99195 -87.89325 647 ft 9 kts 276°
2026-05-05 21:09 41.99197 -87.89359 647 ft 0 kts 260°
2026-05-05 21:10 41.99195 -87.89377 647 ft 8 kts 257°
2026-05-05 21:10 41.99173 -87.89463 647 ft 7 kts 234°
2026-05-05 21:10 41.99120 -87.89495 647 ft 4 kts 174°
2026-05-05 21:10 41.99101 -87.89488 647 ft 9 kts 144°
2026-05-05 21:11 41.99080 -87.89404 647 ft 9 kts 89°
2026-05-05 21:11 41.99082 -87.89328 647 ft 4 kts 85°
2026-05-05 21:11 41.99080 -87.89266 647 ft 5 kts 95°
2026-05-05 21:11 41.99081 -87.89177 647 ft 0 kts 92°
2026-05-05 21:12 41.99079 -87.89176 647 ft 1 kts 198°
2026-05-05 21:12 41.99078 -87.89234 647 ft 5 kts 263°
2026-05-05 21:12 41.99052 -87.89269 647 ft 7 kts 195°
2026-05-05 21:12 41.99012 -87.89259 647 ft 13 kts 149°
2026-05-05 21:13 41.98999 -87.89245 647 ft 0 kts 126°
2026-05-05 21:13 41.98996 -87.89237 647 ft 6 kts 111°
2026-05-05 21:13 41.98993 -87.89208 647 ft 0 kts 90°
2026-05-05 21:13 41.98994 -87.89186 647 ft 0 kts 88°
2026-05-05 21:14 41.98994 -87.89126 647 ft 0 kts 115°
2026-05-05 21:14 41.98952 -87.89042 647 ft 12 kts 182°
2026-05-05 21:14 41.98923 -87.89043 647 ft 0 kts 187°
2026-05-05 21:16 41.98914 -87.89044 647 ft 9 kts 182°
2026-05-05 21:16 41.98846 -87.89105 647 ft 11 kts 261°
2026-05-05 21:16 41.98829 -87.89296 647 ft 45 kts 270°
2026-05-05 21:17 41.98824 -87.89878 733 ft 70 kts 266°
2026-05-05 21:17 41.98848 -87.90561 912 ft 74 kts 276°
2026-05-05 21:17 41.98811 -87.91267 1093 ft 78 kts 268°
2026-05-05 21:17 41.98853 -87.91968 1278 ft 78 kts 300°
2026-05-05 21:18 41.99341 -87.92291 1447 ft 85 kts 351°
2026-05-05 21:18 41.99918 -87.91956 1552 ft 106 kts 38°
2026-05-05 21:18 42.00253 -87.91021 1606 ft 113 kts 71°
2026-05-05 21:18 42.00334 -87.89998 1564 ft 109 kts 78°
2026-05-05 21:19 42.00433 -87.88985 1587 ft 108 kts 74°
2026-05-05 21:19 42.00565 -87.87956 1567 ft 112 kts 74°
2026-05-05 21:19 42.00676 -87.86914 1579 ft 112 kts 77°
2026-05-05 21:19 42.00774 -87.85854 1563 ft 115 kts 77°
2026-05-05 21:20 42.00865 -87.84790 1609 ft 111 kts 76°
2026-05-05 21:20 42.00961 -87.83723 1577 ft 110 kts 79°
2026-05-05 21:20 42.01021 -87.82684 1571 ft 110 kts 79°
2026-05-05 21:20 42.01077 -87.81655 1596 ft 106 kts 78°
2026-05-05 21:21 42.01150 -87.80635 1542 ft 114 kts 78°
2026-05-05 21:21 42.01228 -87.79598 1565 ft 111 kts 78°
2026-05-05 21:21 42.01338 -87.78546 1545 ft 113 kts 76°
2026-05-05 21:21 42.01472 -87.77550 1610 ft 107 kts 71°
2026-05-05 21:22 42.01661 -87.76570 1600 ft 109 kts 69°
2026-05-05 21:22 42.01814 -87.75546 1577 ft 111 kts 77°
2026-05-05 21:22 42.01927 -87.74513 1578 ft 111 kts 75°
2026-05-05 21:22 42.02065 -87.73492 1554 ft 111 kts 70°
2026-05-05 21:23 42.02225 -87.72496 1588 ft 108 kts 73°
2026-05-05 21:23 42.02382 -87.71506 1596 ft 108 kts 70°
2026-05-05 21:23 42.02502 -87.70501 1612 ft 107 kts 77°
2026-05-05 21:23 42.02537 -87.69476 1585 ft 110 kts 83°
2026-05-05 21:24 42.02577 -87.68478 1666 ft 103 kts 82°
2026-05-05 21:24 42.02621 -87.67488 1606 ft 113 kts 84°
2026-05-05 21:24 42.02666 -87.66410 1558 ft 110 kts 82°
2026-05-05 21:24 42.02709 -87.65393 1564 ft 108 kts 79°
2026-05-05 21:25 42.02806 -87.64372 1518 ft 109 kts 77°
2026-05-05 21:25 42.02844 -87.63354 1518 ft 109 kts 84°
2026-05-05 21:25 42.02840 -87.62371 1578 ft 103 kts 85°
2026-05-05 21:25 42.02838 -87.61384 1558 ft 107 kts 84°
2026-05-05 21:26 42.02805 -87.60383 1562 ft 107 kts 86°
2026-05-05 21:26 42.02749 -87.59370 1536 ft 110 kts 88°
2026-05-05 21:26 42.02701 -87.58360 1554 ft 107 kts 85°
2026-05-05 21:26 42.02720 -87.57370 1551 ft 106 kts 78°
2026-05-05 21:27 42.02797 -87.56398 1538 ft 107 kts 76°
2026-05-05 21:27 42.02900 -87.55411 1518 ft 108 kts 79°
2026-05-05 21:27 42.02813 -87.54422 1568 ft 109 kts 95°
2026-05-05 21:27 42.02678 -87.53399 1569 ft 113 kts 96°
2026-05-05 21:28 42.02478 -87.52360 1574 ft 116 kts 104°
2026-05-05 21:28 42.02201 -87.51330 1568 ft 118 kts 107°
2026-05-05 21:28 42.01912 -87.50301 1551 ft 119 kts 106°
2026-05-05 21:28 42.01642 -87.49269 1565 ft 117 kts 104°
2026-05-05 21:29 42.01375 -87.48231 1563 ft 116 kts 107°
2026-05-05 21:29 42.01075 -87.47205 1527 ft 120 kts 111°
2026-05-05 21:29 42.00726 -87.46207 1540 ft 118 kts 115°
2026-05-05 21:29 42.00354 -87.45230 1576 ft 114 kts 114°
2026-05-05 21:30 41.99967 -87.44248 1513 ft 120 kts 115°
2026-05-05 21:30 41.99586 -87.43278 1523 ft 121 kts 115°
2026-05-05 21:30 41.99181 -87.42305 1541 ft 118 kts 118°
2026-05-05 21:30 41.98761 -87.41370 1570 ft 114 kts 117°
2026-05-05 21:31 41.98340 -87.40458 1574 ft 114 kts 115°
2026-05-05 21:31 41.97955 -87.39510 1494 ft 119 kts 115°
2026-05-05 21:31 41.97552 -87.38548 1472 ft 118 kts 117°
2026-05-05 21:31 41.97067 -87.37707 1563 ft 109 kts 124°
2026-05-05 21:32 41.96614 -87.36858 1524 ft 113 kts 117°
2026-05-05 21:32 41.96166 -87.35971 1503 ft 114 kts 126°